CX2SA-13 Weather Reports


time (UTC)temp
C
wind
direction
speed
KPH
gust
KPH
rain 1hr
cm
rain 24hr
cm
rain mn
cm
humidity
%
barometer
mb
20260507144444 17 180 8.0 0.0 0.00 0.00 2.92 98 997.6
20260507142945 17 202 8.0 0.0 0.00 0.00 2.84 98 997.9
20260507141443 17 225 6.4 0.0 0.00 0.00 2.79 98 997.2
20260507135944 17 270 9.7 0.0 0.00 0.00 2.79 98 996.9
20260507134445 17 292 8.0 9.7 0.00 0.00 2.77 98 998.9
20260507132944 17 112 6.4 11.3 0.00 0.00 2.72 98 996.6
20260507131444 17 225 8.0 0.0 0.00 0.00 2.64 98 997.9
20260507125945 17 270 4.8 11.3 0.00 0.00 2.26 97 997.2
20260507124444 17 112 8.0 12.9 0.00 0.00 1.83 97 997.6
20260507122945 17 112 6.4 9.7 0.00 0.00 1.65 97 996.9
20260507121445 17 225 11.3 17.7 0.00 0.00 1.63 97 997.2
20260507115944 18 360 20.9 0.0 0.00 0.00 1.40 97 996.9
20260507114445 20 22 12.9 22.5 0.00 0.00 0.74 96 997.2
20260507112946 24 292 22.5 0.0 0.00 0.00 0.13 92 994.5
20260507111444 26 22 11.3 17.7 0.00 0.00 0.00 81 995.2
20260507105945 26 337 14.5 0.0 0.00 0.00 0.00 81 995.6
20260507104444 26 315 6.4 11.3 0.00 0.00 0.00 81 995.2
20260507102944 26 337 19.3 22.5 0.00 0.00 0.00 81 994.5
20260507101445 26 22 6.4 17.7 0.00 0.00 0.00 81 994.5
20260507095944 26 292 9.7 14.5 0.00 0.00 0.00 82 994.5
20260507094445 26 90 11.3 0.0 0.00 0.00 0.00 82 994.2
20260507092945 26 67 12.9 16.1 0.00 0.00 0.00 82 994.9
20260507091444 26 22 16.1 17.7 0.00 0.00 0.00 82 994.9
20260507085945 26 247 11.3 16.1 0.00 0.00 0.00 82 995.2
20260507084446 26 22 16.1 0.0 0.00 0.00 0.00 82 995.6
20260507082944 26 337 9.7 19.3 0.00 0.00 0.00 82 995.6
20260507081445 26 360 11.3 14.5 0.00 0.00 0.00 83 996.2
20260507075944 26 247 6.4 11.3 0.00 0.00 0.00 83 996.6
20260507074444 26 337 9.7 14.5 0.00 0.00 0.00 83 996.6
20260507072945 26 67 17.7 20.9 0.00 0.00 0.00 84 996.9
20260507071444 25 337 11.3 14.5 0.00 0.00 0.00 86 997.2
20260507065945 25 22 11.3 17.7 0.00 0.00 0.00 88 997.6
20260507064445 25 22 9.7 12.9 0.00 0.00 0.00 88 997.9
20260507062944 24 45 11.3 0.0 0.00 0.00 0.00 90 998.3
20260507061445 24 22 4.8 11.3 0.00 0.00 0.00 90 997.9
20260507055943 24 67 9.7 12.9 0.00 0.00 0.00 91 997.9
20260507054444 24 67 17.7 19.3 0.00 0.00 0.00 91 997.9
20260507052945 24 360 11.3 17.7 0.00 0.00 0.00 90 998.9
20260507051443 24 45 12.9 17.7 0.00 0.00 0.00 89 1000.0
20260507045944 24 45 12.9 16.1 0.00 0.00 0.00 89 1000.0
20260507044445 24 90 9.7 17.7 0.00 0.00 0.00 89 1000.0
20260507042943 25 360 12.9 0.0 0.00 0.00 0.00 89 1001.0
20260507041444 25 112 12.9 14.5 0.00 0.00 0.00 89 1001.0
20260507035945 25 112 11.3 12.9 0.00 0.00 0.00 89 1001.0
20260507034444 25 22 16.1 20.9 0.00 0.00 0.00 89 1001.0
20260507032945 24 45 11.3 14.5 0.00 0.00 0.00 89 1001.0
20260507031445 24 22 14.5 0.0 0.00 0.00 0.00 88 1001.0
20260507025944 24 337 9.7 11.3 0.00 0.00 0.00 88 1001.0
20260507024445 25 22 12.9 17.7 0.00 0.00 0.00 87 1001.0
20260507022946 25 45 8.0 12.9 0.00 0.00 0.00 87 1001.0
20260507021444 25 22 11.3 16.1 0.00 0.00 0.00 87 1001.0
20260507015945 25 45 8.0 14.5 0.00 0.00 0.00 86 1001.0
20260507014444 25 22 17.7 0.0 0.00 0.00 0.00 86 1001.6
20260507012944 25 22 14.5 0.0 0.00 0.00 0.00 86 1002.0
20260507011445 25 45 9.7 14.5 0.00 0.00 0.00 85 1002.0
20260507005944 25 360 11.3 0.0 0.00 0.00 0.00 84 1002.0
20260507004445 25 22 11.3 17.7 0.00 0.00 0.00 84 1002.7
20260507002945 25 360 12.9 0.0 0.00 0.00 0.00 83 1002.0
20260507001444 25 22 11.3 16.1 0.00 0.00 0.00 83 1002.7
20260506235945 25 22 8.0 12.9 0.00 0.00 0.00 82 1002.7
20260506234443 25 45 8.0 11.3 0.00 0.00 0.00 82 1002.0
20260506232944 25 112 6.4 8.0 0.00 0.00 0.00 82 1002.7
20260506231445 26 22 4.8 6.4 0.00 0.00 0.00 82 1002.7
20260506225944 26 90 11.3 12.9 0.00 0.00 0.00 82 1002.7
20260506224444 26 112 8.0 0.0 0.00 0.00 0.00 82 1002.7
20260506222945 26 45 3.2 6.4 0.00 0.00 0.00 82 1002.7
20260506221444 26 67 3.2 6.4 0.00 0.00 0.00 82 1002.7
20260506215945 26 67 6.4 9.7 0.00 0.00 0.00 81 1002.7
20260506214445 26 90 8.0 9.7 0.00 0.00 0.00 81 1002.7
20260506212944 27 67 3.2 14.5 0.00 0.00 0.00 80 1002.0
20260506211445 27 360 12.9 0.0 0.00 0.00 0.00 79 1002.0
20260506205943 28 45 8.0 11.3 0.00 0.00 0.00 77 1002.7
20260506204444 28 45 11.3 0.0 0.00 0.00 0.00 76 1002.7
20260506202945 28 67 9.7 11.3 0.00 0.00 0.00 76 1002.7
20260506201444 28 45 9.7 11.3 0.00 0.00 0.00 76 1002.7
20260506195944 28 22 9.7 0.0 0.00 0.00 0.00 76 1003.0
20260506194445 28 360 9.7 14.5 0.00 0.00 0.00 77 1003.0
20260506192944 28 22 9.7 14.5 0.00 0.00 0.00 77 1003.0
20260506191445 28 67 8.0 11.3 0.00 0.00 0.00 79 1003.0
20260506185946 28 22 11.3 14.5 0.00 0.00 0.00 79 1003.7
20260506184444 28 22 8.0 12.9 0.00 0.00 0.00 79 1003.7
20260506182945 27 45 9.7 14.5 0.00 0.00 0.00 80 1004.0
20260506181443 27 22 9.7 11.3 0.00 0.00 0.00 80 1004.4
20260506175944 28 90 8.0 0.0 0.00 0.00 0.00 79 1004.4
20260506174445 28 360 6.4 14.5 0.00 0.00 0.00 77 1004.4
20260506172944 28 67 8.0 14.5 0.00 0.00 0.00 77 1004.7
20260506171445 28 90 14.5 0.0 0.00 0.00 0.00 76 1005.0
20260506165945 28 22 11.3 0.0 0.00 0.00 0.00 77 1005.4
20260506164444 28 360 12.9 14.5 0.00 0.00 0.00 76 1005.7
20260506162945 28 45 12.9 14.5 0.00 0.00 0.00 77 1006.1
20260506161443 28 45 9.7 22.5 0.00 0.00 0.00 78 1006.4
20260506155944 28 67 11.3 12.9 0.00 0.00 0.00 77 1006.7
20260506154445 27 45 9.7 17.7 0.00 0.00 0.00 79 1006.7
20260506152943 28 45 14.5 19.3 0.00 0.00 0.00 78 1007.7
20260506151444 28 90 17.7 0.0 0.00 0.00 0.00 77 1007.7
20260506145945 27 45 12.9 19.3 0.00 0.00 0.00 80 1007.7